Time,TemperatureF,DewpointF,PressureIn,WindDirection,WindDirectionDegrees,WindSpeedMPH,WindSpeedGustMPH,Humidity,HourlyPrecipIn,Conditions,Clouds,dailyrainin,SoftwareType,DateUTC
2013-07-14 00:00:00,75.2,71.4,23.25,NNE,22,0.0,2.0,88,0.00,,,0.00,VWS V13.01,2013-07-14 04:00:00,
2013-07-14 00:05:00,75.5,71.7,23.25,NNE,22,0.0,2.0,88,0.00,,,0.00,VWS V13.01,2013-07-14 04:05:00,
2013-07-14 00:10:00,75.7,71.9,23.25,NNE,22,0.0,2.0,88,0.00,,,0.00,VWS V13.01,2013-07-14 04:10:00,
2013-07-14 00:15:00,75.8,72.3,23.25,NE,45,0.0,2.0,89,0.00,,,0.00,VWS V13.01,2013-07-14 04:15:00,
2013-07-14 00:20:00,75.9,72.4,23.25,NE,45,0.0,1.0,89,0.00,,,0.00,VWS V13.01,2013-07-14 04:20:00,
2013-07-14 00:25:00,75.9,72.4,23.25,NE,45,0.0,0.0,89,0.00,,,0.00,VWS V13.01,2013-07-14 04:25:00,
2013-07-14 00:30:00,75.8,72.3,23.25,NE,45,0.0,0.0,89,0.00,,,0.00,VWS V13.01,2013-07-14 04:30:00,
2013-07-14 00:35:00,75.9,72.8,23.25,NE,45,0.0,0.0,90,0.00,,,0.00,VWS V13.01,2013-07-14 04:35:00,
2013-07-14 00:40:00,75.9,72.4,23.25,NE,45,0.0,0.0,89,0.00,,,0.00,VWS V13.01,2013-07-14 04:40:00,
2013-07-14 00:45:00,75.9,72.8,23.25,NE,45,0.0,3.0,90,0.00,,,0.00,VWS V13.01,2013-07-14 04:45:00,
2013-07-14 00:50:00,76.0,72.9,23.25,NE,45,0.0,3.0,90,0.00,,,0.00,VWS V13.01,2013-07-14 04:50:00,
2013-07-14 00:55:00,76.0,72.9,23.25,NE,45,0.0,1.0,90,0.00,,,0.00,VWS V13.01,2013-07-14 04:55:00,
2013-07-14 01:00:00,75.9,72.8,23.25,NE,45,0.0,1.0,90,0.00,,,0.00,VWS V13.01,2013-07-14 05:00:00,
2013-07-14 01:05:00,76.0,72.9,23.25,NE,45,0.0,1.0,90,0.00,,,0.00,VWS V13.01,2013-07-14 05:05:00,
2013-07-14 01:10:00,76.0,73.2,23.25,NE,45,0.0,1.0,91,0.00,,,0.00,VWS V13.01,2013-07-14 05:10:00,
2013-07-14 01:15:00,76.0,73.2,23.25,NE,45,0.0,1.0,91,0.00,,,0.00,VWS V13.01,2013-07-14 05:15:00,
2013-07-14 01:20:00,75.9,73.1,23.25,NE,45,0.0,2.0,91,0.00,,,0.00,VWS V13.01,2013-07-14 05:20:00,
2013-07-14 01:25:00,75.9,73.1,23.25,NE,45,0.0,1.0,91,0.00,,,0.00,VWS V13.01,2013-07-14 05:25:00,
2013-07-14 01:30:00,75.8,73.0,23.25,NE,45,0.0,1.0,91,0.00,,,0.00,VWS V13.01,2013-07-14 05:30:00,
2013-07-14 01:35:00,75.8,73.0,25.00,NE,45,0.0,2.0,91,0.00,,,0.00,VWS V13.01,2013-07-14 05:35:00,
2013-07-14 01:40:00,75.6,72.8,25.00,NE,45,0.0,1.0,91,0.00,,,0.00,VWS V13.01,2013-07-14 05:40:00,
2013-07-14 01:45:00,75.6,73.1,23.23,NE,45,0.0,0.0,92,0.00,,,0.00,VWS V13.01,2013-07-14 05:45:00,
2013-07-14 01:50:00,75.4,72.6,23.23,NE,45,0.0,0.0,91,0.00,,,0.00,VWS V13.01,2013-07-14 05:50:00,
2013-07-14 01:55:00,75.4,72.6,23.23,NE,45,0.0,0.0,91,0.00,,,0.00,VWS V13.01,2013-07-14 05:55:00,
2013-07-14 02:00:00,75.3,72.8,23.23,NE,45,0.0,0.0,92,0.00,,,0.00,VWS V13.01,2013-07-14 06:00:00,
2013-07-14 02:05:00,75.2,72.7,23.23,NE,45,0.0,0.0,92,0.00,,,0.00,VWS V13.01,2013-07-14 06:05:00,
2013-07-14 02:10:00,75.2,72.7,23.23,NE,45,0.0,0.0,92,0.00,,,0.00,VWS V13.01,2013-07-14 06:10:00,
2013-07-14 02:15:00,75.0,72.5,23.23,NE,45,0.0,1.0,92,0.00,,,0.00,VWS V13.01,2013-07-14 06:15:00,
2013-07-14 02:20:00,74.9,72.4,23.23,NE,45,0.0,0.0,92,0.00,,,0.00,VWS V13.01,2013-07-14 06:20:00,
2013-07-14 02:25:00,74.8,72.3,23.23,NE,45,0.0,0.0,92,0.00,,,0.00,VWS V13.01,2013-07-14 06:25:00,
2013-07-14 02:30:00,74.8,72.3,23.23,NE,45,0.0,0.0,92,0.00,,,0.00,VWS V13.01,2013-07-14 06:30:00,
2013-07-14 02:35:00,74.7,72.2,23.23,NE,45,0.0,0.0,92,0.00,,,0.00,VWS V13.01,2013-07-14 06:35:00,
2013-07-14 02:40:00,74.6,72.1,23.23,NE,45,0.0,0.0,92,0.00,,,0.00,VWS V13.01,2013-07-14 06:40:00,
2013-07-14 02:45:00,74.5,72.3,23.23,NE,45,0.0,0.0,93,0.00,,,0.00,VWS V13.01,2013-07-14 06:45:00,
2013-07-14 02:50:00,74.4,72.2,23.23,NE,45,0.0,0.0,93,0.00,,,0.00,VWS V13.01,2013-07-14 06:50:00,
2013-07-14 02:55:00,74.4,72.2,23.23,NE,45,0.0,0.0,93,0.00,,,0.00,VWS V13.01,2013-07-14 06:55:00,
2013-07-14 03:00:00,74.3,72.2,23.23,NE,45,0.0,0.0,93,0.00,,,0.00,VWS V13.01,2013-07-14 07:00:00,
2013-07-14 03:05:00,74.3,72.2,23.23,NE,45,0.0,0.0,93,0.00,,,0.00,VWS V13.01,2013-07-14 07:05:00,
2013-07-14 03:10:00,74.4,72.2,23.23,NE,45,0.0,0.0,93,0.00,,,0.00,VWS V13.01,2013-07-14 07:10:00,
2013-07-14 03:15:00,74.4,72.2,23.23,NE,45,0.0,0.0,93,0.00,,,0.00,VWS V13.01,2013-07-14 07:15:00,
2013-07-14 03:20:00,74.3,72.2,23.23,NE,45,0.0,0.0,93,0.00,,,0.00,VWS V13.01,2013-07-14 07:20:00,
2013-07-14 03:25:00,74.2,72.1,23.23,NE,45,0.0,0.0,93,0.00,,,0.00,VWS V13.01,2013-07-14 07:25:00,
2013-07-14 03:30:00,74.2,72.4,23.23,NE,45,0.0,0.0,94,0.00,,,0.00,VWS V13.01,2013-07-14 07:30:00,
2013-07-14 03:35:00,74.4,72.6,23.23,NE,45,0.0,0.0,94,0.00,,,0.00,VWS V13.01,2013-07-14 07:35:00,
2013-07-14 03:40:00,74.5,72.7,23.23,NE,45,0.0,2.0,94,0.00,,,0.00,VWS V13.01,2013-07-14 07:40:00,
2013-07-14 03:45:00,74.5,72.7,23.23,NE,45,0.0,0.0,94,0.00,,,0.00,VWS V13.01,2013-07-14 07:45:00,
2013-07-14 03:50:00,74.5,72.7,23.23,NE,45,0.0,2.0,94,0.00,,,0.00,VWS V13.01,2013-07-14 07:50:00,
2013-07-14 03:55:00,74.5,72.7,23.23,NE,45,0.0,1.0,94,0.00,,,0.00,VWS V13.01,2013-07-14 07:55:00,
2013-07-14 04:00:00,74.6,72.8,23.23,NE,45,0.0,3.0,94,0.00,,,0.00,VWS V13.01,2013-07-14 08:00:00,
2013-07-14 04:05:00,74.7,72.9,23.23,NE,45,0.0,2.0,94,0.00,,,0.00,VWS V13.01,2013-07-14 08:05:00,
2013-07-14 04:10:00,74.6,72.8,23.23,NE,45,0.0,0.0,94,0.00,,,0.00,VWS V13.01,2013-07-14 08:10:00,
2013-07-14 04:15:00,74.3,72.5,23.23,NE,45,0.0,0.0,94,0.00,,,0.00,VWS V13.01,2013-07-14 08:15:00,
2013-07-14 04:20:00,74.1,72.3,22.48,NE,45,0.0,0.0,94,0.00,,,0.00,VWS V13.01,2013-07-14 08:20:00,
2013-07-14 04:25:00,74.1,72.3,22.48,NE,45,0.0,0.0,94,0.00,,,0.00,VWS V13.01,2013-07-14 08:25:00,
2013-07-14 04:30:00,74.2,72.4,22.48,NE,45,0.0,0.0,94,0.00,,,0.00,VWS V13.01,2013-07-14 08:30:00,
2013-07-14 04:35:00,74.1,72.3,22.48,NE,45,0.0,0.0,94,0.00,,,0.00,VWS V13.01,2013-07-14 08:35:00,
2013-07-14 04:40:00,73.9,72.1,22.48,NE,45,0.0,0.0,94,0.00,,,0.00,VWS V13.01,2013-07-14 08:40:00,
2013-07-14 04:45:00,73.7,71.9,22.48,NE,45,0.0,0.0,94,0.00,,,0.00,VWS V13.01,2013-07-14 08:45:00,
2013-07-14 04:50:00,73.6,71.8,22.48,NE,45,0.0,0.0,94,0.00,,,0.00,VWS V13.01,2013-07-14 08:50:00,
2013-07-14 04:55:00,73.8,72.0,22.48,NE,45,0.0,0.0,94,0.00,,,0.00,VWS V13.01,2013-07-14 08:55:00,
2013-07-14 05:00:00,74.0,72.2,22.48,NE,45,0.0,0.0,94,0.00,,,0.00,VWS V13.01,2013-07-14 09:00:00,
2013-07-14 05:05:00,73.9,72.1,22.48,NE,45,0.0,0.0,94,0.00,,,0.00,VWS V13.01,2013-07-14 09:05:00,
2013-07-14 05:10:00,74.1,72.3,22.48,NE,45,0.0,0.0,94,0.00,,,0.00,VWS V13.01,2013-07-14 09:10:00,
2013-07-14 05:15:00,74.2,72.4,22.48,NE,45,0.0,0.0,94,0.00,,,0.00,VWS V13.01,2013-07-14 09:15:00,
2013-07-14 05:20:00,74.2,72.4,22.48,NE,45,0.0,0.0,94,0.00,,,0.00,VWS V13.01,2013-07-14 09:20:00,
2013-07-14 05:25:00,74.2,72.4,22.48,NE,45,0.0,0.0,94,0.00,,,0.00,VWS V13.01,2013-07-14 09:25:00,
2013-07-14 05:30:00,74.1,72.3,23.74,NE,45,0.0,0.0,94,0.00,,,0.00,VWS V13.01,2013-07-14 09:30:00,
2013-07-14 05:35:00,74.1,72.3,23.74,NE,45,0.0,0.0,94,0.00,,,0.00,VWS V13.01,2013-07-14 09:35:00,
2013-07-14 05:40:00,74.3,72.8,23.74,ENE,68,0.0,3.0,95,0.00,,,0.00,VWS V13.01,2013-07-14 09:40:00,
2013-07-14 05:45:00,74.7,73.2,23.74,ENE,68,0.0,2.0,95,0.00,,,0.00,VWS V13.01,2013-07-14 09:45:00,
2013-07-14 05:50:00,74.7,72.9,24.25,ENE,68,0.0,1.0,94,0.00,,,0.00,VWS V13.01,2013-07-14 09:50:00,
2013-07-14 05:55:00,74.8,73.0,24.25,ENE,68,0.0,1.0,94,0.00,,,0.00,VWS V13.01,2013-07-14 09:55:00,
2013-07-14 06:00:00,75.1,73.6,24.25,North,0,0.0,2.0,95,0.00,,,0.00,VWS V13.01,2013-07-14 10:00:00,
2013-07-14 06:05:00,75.1,73.6,24.25,North,0,0.0,2.0,95,0.00,,,0.00,VWS V13.01,2013-07-14 10:05:00,
2013-07-14 06:10:00,75.1,73.6,24.25,North,0,0.0,2.0,95,0.00,,,0.00,VWS V13.01,2013-07-14 10:10:00,
2013-07-14 06:15:00,75.1,73.6,24.25,North,0,0.0,1.0,95,0.00,,,0.00,VWS V13.01,2013-07-14 10:15:00,
2013-07-14 06:20:00,75.3,73.8,24.25,North,0,1.0,3.0,95,0.00,,,0.00,VWS V13.01,2013-07-14 10:20:00,
2013-07-14 06:25:00,75.5,74.0,24.25,South,180,0.0,3.0,95,0.00,,,0.00,VWS V13.01,2013-07-14 10:25:00,
2013-07-14 06:30:00,75.4,73.9,24.25,South,180,0.0,1.0,95,0.00,,,0.00,VWS V13.01,2013-07-14 10:30:00,
2013-07-14 06:35:00,75.4,73.9,24.86,South,180,0.0,1.0,95,0.00,,,0.00,VWS V13.01,2013-07-14 10:35:00,
2013-07-14 06:40:00,75.4,73.6,24.86,South,180,0.0,1.0,94,0.00,,,0.00,VWS V13.01,2013-07-14 10:40:00,
2013-07-14 06:45:00,75.4,73.9,27.38,South,180,0.0,1.0,95,0.00,,,0.00,VWS V13.01,2013-07-14 10:45:00,
2013-07-14 06:50:00,75.4,73.6,27.38,South,180,0.0,2.0,94,0.00,,,0.00,VWS V13.01,2013-07-14 10:50:00,
2013-07-14 06:55:00,75.4,73.6,24.86,South,180,0.0,1.0,94,0.00,,,0.00,VWS V13.01,2013-07-14 10:55:00,
2013-07-14 07:00:00,75.4,73.6,27.38,South,180,0.0,2.0,94,0.00,,,0.00,VWS V13.01,2013-07-14 11:00:00,
2013-07-14 07:05:00,75.6,74.1,29.90,South,180,0.0,2.0,95,0.00,,,0.00,VWS V13.01,2013-07-14 11:05:00,
2013-07-14 07:10:00,75.7,74.2,29.90,ENE,68,1.0,2.0,95,0.00,,,0.00,VWS V13.01,2013-07-14 11:10:00,
2013-07-14 07:15:00,75.8,74.3,26.12,East,90,1.0,3.0,95,0.00,,,0.00,VWS V13.01,2013-07-14 11:15:00,
2013-07-14 07:20:00,75.8,73.9,26.12,SE,135,0.0,1.0,94,0.00,,,0.00,VWS V13.01,2013-07-14 11:20:00,
2013-07-14 07:25:00,75.9,74.1,26.12,SSE,158,1.0,4.0,94,0.00,,,0.00,VWS V13.01,2013-07-14 11:25:00,
2013-07-14 07:30:00,75.9,74.1,26.12,ENE,68,1.0,4.0,94,0.00,,,0.00,VWS V13.01,2013-07-14 11:30:00,
2013-07-14 07:35:00,76.1,74.2,24.86,ENE,68,0.0,2.0,94,0.00,,,0.00,VWS V13.01,2013-07-14 11:35:00,
2013-07-14 07:40:00,76.3,74.4,24.86,ENE,68,1.0,3.0,94,0.00,,,0.00,VWS V13.01,2013-07-14 11:40:00,
2013-07-14 07:45:00,76.5,74.7,24.86,ESE,112,1.0,4.0,94,0.00,,,0.00,VWS V13.01,2013-07-14 11:45:00,
2013-07-14 07:50:00,76.7,74.8,24.86,ESE,112,1.0,3.0,94,0.00,,,0.00,VWS V13.01,2013-07-14 11:50:00,
2013-07-14 07:55:00,76.8,74.9,24.86,East,90,2.0,4.0,94,0.00,,,0.00,VWS V13.01,2013-07-14 11:55:00,
2013-07-14 08:00:00,76.8,74.6,24.86,East,90,0.0,5.0,93,0.00,,,0.00,VWS V13.01,2013-07-14 12:00:00,
2013-07-14 08:05:00,76.9,74.7,24.86,ENE,68,1.0,5.0,93,0.00,,,0.00,VWS V13.01,2013-07-14 12:05:00,
2013-07-14 08:10:00,76.9,74.7,24.86,ENE,68,1.0,5.0,93,0.00,,,0.00,VWS V13.01,2013-07-14 12:10:00,
2013-07-14 08:15:00,77.1,74.6,24.86,ENE,68,1.0,5.0,92,0.00,,,0.00,VWS V13.01,2013-07-14 12:15:00,
2013-07-14 08:20:00,77.3,74.8,24.86,SE,135,2.0,5.0,92,0.00,,,0.00,VWS V13.01,2013-07-14 12:20:00,
2013-07-14 08:25:00,77.2,74.7,24.86,East,90,1.0,4.0,92,0.00,,,0.00,VWS V13.01,2013-07-14 12:25:00,
2013-07-14 08:30:00,77.4,74.6,24.86,East,90,1.0,4.0,91,0.00,,,0.00,VWS V13.01,2013-07-14 12:30:00,
2013-07-14 08:35:00,77.7,74.9,24.86,ESE,112,1.0,5.0,91,0.00,,,0.00,VWS V13.01,2013-07-14 12:35:00,
2013-07-14 08:40:00,77.8,75.0,24.86,East,90,1.0,5.0,91,0.00,,,0.00,VWS V13.01,2013-07-14 12:40:00,
2013-07-14 08:45:00,78.2,75.0,26.12,SSE,158,2.0,5.0,90,0.00,,,0.00,VWS V13.01,2013-07-14 12:45:00,
2013-07-14 08:50:00,78.5,75.3,26.12,SE,135,1.0,4.0,90,0.00,,,0.00,VWS V13.01,2013-07-14 12:50:00,
2013-07-14 08:55:00,78.9,75.4,24.86,ESE,112,1.0,9.0,89,0.00,,,0.00,VWS V13.01,2013-07-14 12:55:00,
2013-07-14 09:00:00,79.4,75.5,24.86,East,90,1.0,4.0,88,0.00,,,0.00,VWS V13.01,2013-07-14 13:00:00,
2013-07-14 09:05:00,79.6,75.4,24.86,ESE,112,3.0,7.0,87,0.00,,,0.00,VWS V13.01,2013-07-14 13:05:00,
2013-07-14 09:10:00,79.8,75.2,24.86,East,90,3.0,10.0,86,0.00,,,0.00,VWS V13.01,2013-07-14 13:10:00,
2013-07-14 09:15:00,80.3,75.7,24.86,South,180,2.0,7.0,86,0.00,,,0.00,VWS V13.01,2013-07-14 13:15:00,
2013-07-14 09:20:00,80.5,75.6,24.86,South,180,3.0,10.0,85,0.00,,,0.00,VWS V13.01,2013-07-14 13:20:00,
2013-07-14 09:25:00,79.9,75.3,24.86,East,90,3.0,7.0,86,0.00,,,0.00,VWS V13.01,2013-07-14 13:25:00,
2013-07-14 09:30:00,79.8,75.2,24.86,ESE,112,3.0,6.0,86,0.00,,,0.00,VWS V13.01,2013-07-14 13:30:00,
2013-07-14 09:35:00,79.6,75.1,24.86,South,180,3.0,7.0,86,0.00,,,0.00,VWS V13.01,2013-07-14 13:35:00,
2013-07-14 09:40:00,79.6,75.1,28.64,SE,135,2.0,6.0,86,0.00,,,0.00,VWS V13.01,2013-07-14 13:40:00,
2013-07-14 09:45:00,79.7,74.8,29.90,East,90,2.0,5.0,85,0.00,,,0.00,VWS V13.01,2013-07-14 13:45:00,
2013-07-14 09:50:00,79.7,74.8,29.90,East,90,2.0,7.0,85,0.00,,,0.00,VWS V13.01,2013-07-14 13:50:00,
2013-07-14 09:55:00,80.0,75.1,27.38,East,90,2.0,6.0,85,0.00,,,0.00,VWS V13.01,2013-07-14 13:55:00,
2013-07-14 10:00:00,80.3,75.7,27.38,ESE,112,2.0,5.0,86,0.00,,,0.00,VWS V13.01,2013-07-14 14:00:00,
2013-07-14 10:05:00,80.8,75.9,27.38,SSE,158,1.0,7.0,85,0.00,,,0.00,VWS V13.01,2013-07-14 14:05:00,
2013-07-14 10:10:00,80.7,75.4,27.38,ENE,68,2.0,6.0,84,0.00,,,0.00,VWS V13.01,2013-07-14 14:10:00,
2013-07-14 10:15:00,80.5,75.2,27.38,SSW,202,2.0,5.0,84,0.00,,,0.00,VWS V13.01,2013-07-14 14:15:00,
2013-07-14 10:20:00,80.5,75.2,28.64,ESE,112,2.0,5.0,84,0.00,,,0.00,VWS V13.01,2013-07-14 14:20:00,
2013-07-14 10:25:00,80.9,75.6,27.38,ESE,112,2.0,4.0,84,0.00,,,0.00,VWS V13.01,2013-07-14 14:25:00,
2013-07-14 10:30:00,81.4,75.4,26.12,SE,135,4.0,10.0,82,0.00,,,0.00,VWS V13.01,2013-07-14 14:30:00,
2013-07-14 10:35:00,81.5,75.5,26.12,SE,135,3.0,8.0,82,0.00,,,0.00,VWS V13.01,2013-07-14 14:35:00,
2013-07-14 10:40:00,81.7,75.7,24.86,SSE,158,3.0,6.0,82,0.00,,,0.00,VWS V13.01,2013-07-14 14:40:00,
2013-07-14 10:45:00,82.0,76.0,24.86,South,180,2.0,5.0,82,0.00,,,0.00,VWS V13.01,2013-07-14 14:45:00,
2013-07-14 10:50:00,82.4,76.0,26.12,SW,225,1.0,4.0,81,0.00,,,0.00,VWS V13.01,2013-07-14 14:50:00,
2013-07-14 10:55:00,83.0,76.2,24.86,East,90,2.0,6.0,80,0.00,,,0.00,VWS V13.01,2013-07-14 14:55:00,
2013-07-14 11:00:00,82.8,76.0,24.86,SSE,158,1.0,4.0,80,0.00,,,0.00,VWS V13.01,2013-07-14 15:00:00,
2013-07-14 11:05:00,83.4,76.2,24.86,WSW,248,1.0,10.0,79,0.00,,,0.00,VWS V13.01,2013-07-14 15:05:00,
2013-07-14 11:10:00,83.8,76.2,24.86,East,90,3.0,6.0,78,0.00,,,0.00,VWS V13.01,2013-07-14 15:10:00,
2013-07-14 11:15:00,83.5,75.5,24.86,SSW,202,3.0,7.0,77,0.00,,,0.00,VWS V13.01,2013-07-14 15:15:00,
2013-07-14 11:20:00,83.4,75.4,26.12,SSE,158,4.0,11.0,77,0.00,,,0.00,VWS V13.01,2013-07-14 15:20:00,
2013-07-14 11:25:00,83.2,75.2,24.86,SE,135,4.0,6.0,77,0.00,,,0.00,VWS V13.01,2013-07-14 15:25:00,
2013-07-14 11:30:00,83.2,75.2,26.12,East,90,4.0,8.0,77,0.00,,,0.00,VWS V13.01,2013-07-14 15:30:00,
2013-07-14 11:35:00,83.6,75.2,26.12,East,90,3.0,8.0,76,0.00,,,0.00,VWS V13.01,2013-07-14 15:35:00,
2013-07-14 11:40:00,83.7,75.3,24.86,SE,135,3.0,9.0,76,0.00,,,0.00,VWS V13.01,2013-07-14 15:40:00,
2013-07-14 11:45:00,84.2,75.0,24.86,East,90,3.0,7.0,74,0.00,,,0.00,VWS V13.01,2013-07-14 15:45:00,
2013-07-14 11:50:00,84.3,74.7,24.86,SSW,202,3.0,10.0,73,0.00,,,0.00,VWS V13.01,2013-07-14 15:50:00,
2013-07-14 11:55:00,84.7,74.3,24.86,SE,135,2.0,5.0,71,0.00,,,0.00,VWS V13.01,2013-07-14 15:55:00,
2013-07-14 12:00:00,85.1,75.1,24.86,SSE,158,2.0,5.0,72,0.00,,,0.00,VWS V13.01,2013-07-14 16:00:00,
2013-07-14 12:05:00,85.9,74.6,32.43,East,90,2.0,7.0,69,0.00,,,0.00,VWS V13.01,2013-07-14 16:05:00,
2013-07-14 12:10:00,86.5,75.1,32.43,SSE,158,3.0,6.0,69,0.00,,,0.00,VWS V13.01,2013-07-14 16:10:00,
2013-07-14 12:15:00,86.6,74.8,31.68,ESE,112,3.0,13.0,68,0.00,,,0.00,VWS V13.01,2013-07-14 16:15:00,
2013-07-14 12:20:00,86.0,75.1,31.68,ESE,112,4.0,9.0,70,0.00,,,0.00,VWS V13.01,2013-07-14 16:20:00,
2013-07-14 12:25:00,86.0,75.1,31.68,East,90,2.0,6.0,70,0.00,,,0.00,VWS V13.01,2013-07-14 16:25:00,
2013-07-14 12:30:00,86.1,74.3,31.68,SE,135,4.0,7.0,68,0.00,,,0.00,VWS V13.01,2013-07-14 16:30:00,
2013-07-14 12:35:00,85.8,74.5,31.68,East,90,4.0,7.0,69,0.00,,,0.00,VWS V13.01,2013-07-14 16:35:00,
2013-07-14 12:40:00,86.2,74.0,31.68,SSE,158,4.0,10.0,67,0.00,,,0.00,VWS V13.01,2013-07-14 16:40:00,
2013-07-14 12:45:00,86.3,73.2,31.68,East,90,4.0,9.0,65,0.00,,,0.00,VWS V13.01,2013-07-14 16:45:00,
2013-07-14 12:50:00,86.3,73.6,31.68,SE,135,4.0,7.0,66,0.00,,,0.00,VWS V13.01,2013-07-14 16:50:00,
2013-07-14 12:55:00,86.6,73.9,31.68,East,90,2.0,6.0,66,0.00,,,0.00,VWS V13.01,2013-07-14 16:55:00,
2013-07-14 13:00:00,87.2,74.9,31.68,SSE,158,2.0,6.0,67,0.00,,,0.00,VWS V13.01,2013-07-14 17:00:00,
2013-07-14 13:05:00,87.3,74.1,31.68,SSW,202,3.0,7.0,65,0.00,,,0.00,VWS V13.01,2013-07-14 17:05:00,
2013-07-14 13:10:00,87.1,74.4,31.68,East,90,3.0,8.0,66,0.00,,,0.00,VWS V13.01,2013-07-14 17:10:00,
2013-07-14 13:15:00,87.2,74.5,31.68,SSE,158,3.0,6.0,66,0.00,,,0.00,VWS V13.01,2013-07-14 17:15:00,
2013-07-14 13:20:00,87.6,75.3,24.86,ENE,68,3.0,6.0,67,0.00,,,0.00,VWS V13.01,2013-07-14 17:20:00,
2013-07-14 13:25:00,87.4,74.7,24.86,SW,225,4.0,11.0,66,0.00,,,0.00,VWS V13.01,2013-07-14 17:25:00,
2013-07-14 13:30:00,87.5,73.4,24.86,East,90,3.0,7.0,63,0.00,,,0.00,VWS V13.01,2013-07-14 17:30:00,
2013-07-14 13:35:00,87.8,75.0,24.86,East,90,2.0,7.0,66,0.00,,,0.00,VWS V13.01,2013-07-14 17:35:00,
2013-07-14 13:40:00,87.7,74.9,24.86,East,90,2.0,10.0,66,0.00,,,0.00,VWS V13.01,2013-07-14 17:40:00,
2013-07-14 13:45:00,87.6,73.9,24.86,ENE,68,3.0,7.0,64,0.00,,,0.00,VWS V13.01,2013-07-14 17:45:00,
2013-07-14 13:50:00,87.8,74.6,26.12,SE,135,3.0,7.0,65,0.00,,,0.00,VWS V13.01,2013-07-14 17:50:00,
2013-07-14 13:55:00,87.7,74.0,26.12,East,90,3.0,7.0,64,0.00,,,0.00,VWS V13.01,2013-07-14 17:55:00,
2013-07-14 14:00:00,87.7,74.5,24.86,SSE,158,3.0,8.0,65,0.00,,,0.00,VWS V13.01,2013-07-14 18:00:00,
2013-07-14 14:05:00,88.1,75.3,24.86,East,90,2.0,5.0,66,0.00,,,0.00,VWS V13.01,2013-07-14 18:05:00,
2013-07-14 14:10:00,88.6,75.8,24.86,East,90,2.0,6.0,66,0.00,,,0.00,VWS V13.01,2013-07-14 18:10:00,
2013-07-14 14:15:00,88.6,75.3,24.86,South,180,3.0,6.0,65,0.00,,,0.00,VWS V13.01,2013-07-14 18:15:00,
2013-07-14 14:20:00,89.0,75.7,24.86,East,90,2.0,7.0,65,0.00,,,0.00,VWS V13.01,2013-07-14 18:20:00,
2013-07-14 14:25:00,89.3,75.5,24.86,ESE,112,2.0,5.0,64,0.00,,,0.00,VWS V13.01,2013-07-14 18:25:00,
2013-07-14 14:30:00,88.6,75.3,24.86,SSE,158,3.0,8.0,65,0.00,,,0.00,VWS V13.01,2013-07-14 18:30:00,
2013-07-14 14:35:00,87.9,75.1,24.86,East,90,2.0,5.0,66,0.00,,,0.00,VWS V13.01,2013-07-14 18:35:00,
2013-07-14 14:40:00,87.7,74.5,24.86,East,90,1.0,3.0,65,0.00,,,0.00,VWS V13.01,2013-07-14 18:40:00,
2013-07-14 14:45:00,88.0,75.2,24.86,SE,135,2.0,9.0,66,0.00,,,0.00,VWS V13.01,2013-07-14 18:45:00,
2013-07-14 14:50:00,88.3,75.5,24.86,South,180,3.0,6.0,66,0.00,,,0.00,VWS V13.01,2013-07-14 18:50:00,
2013-07-14 14:55:00,88.4,75.1,24.86,South,180,3.0,5.0,65,0.00,,,0.00,VWS V13.01,2013-07-14 18:55:00,
2013-07-14 15:00:00,88.4,75.6,22.48,East,90,2.0,6.0,66,0.00,,,0.00,VWS V13.01,2013-07-14 19:00:00,
2013-07-14 15:05:00,88.1,74.9,22.48,South,180,2.0,6.0,65,0.00,,,0.00,VWS V13.01,2013-07-14 19:05:00,
2013-07-14 15:10:00,88.4,74.7,22.48,SSE,158,2.0,5.0,64,0.00,,,0.00,VWS V13.01,2013-07-14 19:10:00,
2013-07-14 15:15:00,89.2,75.4,22.48,ESE,112,1.0,4.0,64,0.00,,,0.00,VWS V13.01,2013-07-14 19:15:00,
2013-07-14 15:20:00,89.5,74.8,22.48,SSE,158,2.0,4.0,62,0.00,,,0.00,VWS V13.01,2013-07-14 19:20:00,
2013-07-14 15:25:00,89.7,76.4,22.48,East,90,1.0,4.0,65,0.00,,,0.00,VWS V13.01,2013-07-14 19:25:00,
2013-07-14 15:30:00,89.7,75.4,22.48,SSE,158,3.0,9.0,63,0.00,,,0.00,VWS V13.01,2013-07-14 19:30:00,
2013-07-14 15:35:00,89.4,75.2,22.48,ENE,68,3.0,7.0,63,0.00,,,0.00,VWS V13.01,2013-07-14 19:35:00,
2013-07-14 15:40:00,89.3,75.1,22.48,ENE,68,2.0,6.0,63,0.00,,,0.00,VWS V13.01,2013-07-14 19:40:00,
2013-07-14 15:45:00,89.4,74.7,22.48,SSW,202,2.0,6.0,62,0.00,,,0.00,VWS V13.01,2013-07-14 19:45:00,
2013-07-14 15:50:00,89.7,75.9,22.48,SSE,158,1.0,5.0,64,0.00,,,0.00,VWS V13.01,2013-07-14 19:50:00,
2013-07-14 15:55:00,89.8,76.9,22.48,NE,45,2.0,7.0,66,0.00,,,0.00,VWS V13.01,2013-07-14 19:55:00,
2013-07-14 16:00:00,90.2,75.9,22.48,ENE,68,2.0,6.0,63,0.00,,,0.00,VWS V13.01,2013-07-14 20:00:00,
2013-07-14 16:05:00,89.8,76.0,22.48,ENE,68,2.0,4.0,64,0.00,,,0.00,VWS V13.01,2013-07-14 20:05:00,
2013-07-14 16:10:00,89.4,75.6,22.48,East,90,2.0,5.0,64,0.00,,,0.00,VWS V13.01,2013-07-14 20:10:00,
2013-07-14 16:15:00,88.9,75.2,22.48,North,0,2.0,5.0,64,0.00,,,0.00,VWS V13.01,2013-07-14 20:15:00,
2013-07-14 16:20:00,88.6,74.9,23.23,East,90,3.0,8.0,64,0.00,,,0.00,VWS V13.01,2013-07-14 20:20:00,
2013-07-14 16:25:00,88.6,75.8,23.23,ENE,68,2.0,4.0,66,0.00,,,0.00,VWS V13.01,2013-07-14 20:25:00,
2013-07-14 16:30:00,88.7,75.4,23.23,SE,135,2.0,4.0,65,0.00,,,0.00,VWS V13.01,2013-07-14 20:30:00,
2013-07-14 16:35:00,88.5,74.3,23.23,East,90,3.0,10.0,63,0.00,,,0.00,VWS V13.01,2013-07-14 20:35:00,
2013-07-14 16:40:00,88.3,73.6,23.23,ENE,68,2.0,6.0,62,0.00,,,0.00,VWS V13.01,2013-07-14 20:40:00,
2013-07-14 16:45:00,88.4,74.2,23.23,SSE,158,2.0,6.0,63,0.00,,,0.00,VWS V13.01,2013-07-14 20:45:00,
2013-07-14 16:50:00,88.9,74.2,23.23,SSE,158,2.0,5.0,62,0.00,,,0.00,VWS V13.01,2013-07-14 20:50:00,
2013-07-14 16:55:00,88.8,74.6,23.23,ENE,68,2.0,7.0,63,0.00,,,0.00,VWS V13.01,2013-07-14 20:55:00,
2013-07-14 17:00:00,88.5,73.3,23.23,ESE,112,3.0,6.0,61,0.00,,,0.00,VWS V13.01,2013-07-14 21:00:00,
2013-07-14 17:05:00,88.6,73.9,23.23,NE,45,2.0,6.0,62,0.00,,,0.00,VWS V13.01,2013-07-14 21:05:00,
2013-07-14 17:10:00,88.5,72.8,23.23,ENE,68,2.0,5.0,60,0.00,,,0.00,VWS V13.01,2013-07-14 21:10:00,
2013-07-14 17:15:00,88.6,72.9,23.23,East,90,2.0,5.0,60,0.00,,,0.00,VWS V13.01,2013-07-14 21:15:00,
2013-07-14 17:20:00,88.3,72.2,23.23,East,90,2.0,6.0,59,0.00,,,0.00,VWS V13.01,2013-07-14 21:20:00,
2013-07-14 17:25:00,89.0,73.8,23.23,East,90,1.0,3.0,61,0.00,,,0.00,VWS V13.01,2013-07-14 21:25:00,
2013-07-14 17:30:00,89.3,74.1,23.23,ENE,68,2.0,7.0,61,0.00,,,0.00,VWS V13.01,2013-07-14 21:30:00,
2013-07-14 17:35:00,88.7,74.0,23.23,East,90,3.0,7.0,62,0.00,,,0.00,VWS V13.01,2013-07-14 21:35:00,
2013-07-14 17:40:00,88.5,74.8,23.23,ESE,112,2.0,4.0,64,0.00,,,0.00,VWS V13.01,2013-07-14 21:40:00,
2013-07-14 17:45:00,88.7,75.0,23.23,SSE,158,2.0,5.0,64,0.00,,,0.00,VWS V13.01,2013-07-14 21:45:00,
2013-07-14 17:50:00,88.4,74.7,23.23,East,90,2.0,7.0,64,0.00,,,0.00,VWS V13.01,2013-07-14 21:50:00,
2013-07-14 17:55:00,88.4,74.7,23.23,South,180,2.0,4.0,64,0.00,,,0.00,VWS V13.01,2013-07-14 21:55:00,
2013-07-14 18:00:00,88.3,74.6,23.23,East,90,2.0,5.0,64,0.00,,,0.00,VWS V13.01,2013-07-14 22:00:00,
2013-07-14 18:05:00,88.0,74.3,23.23,SE,135,2.0,6.0,64,0.00,,,0.00,VWS V13.01,2013-07-14 22:05:00,
2013-07-14 18:10:00,87.7,74.5,23.23,SE,135,3.0,9.0,65,0.00,,,0.00,VWS V13.01,2013-07-14 22:10:00,
2013-07-14 18:15:00,87.4,75.1,23.23,ENE,68,2.0,5.0,67,0.00,,,0.00,VWS V13.01,2013-07-14 22:15:00,
2013-07-14 18:20:00,87.5,75.2,23.23,East,90,2.0,4.0,67,0.00,,,0.00,VWS V13.01,2013-07-14 22:20:00,
2013-07-14 18:25:00,87.5,74.3,23.23,SSE,158,2.0,5.0,65,0.00,,,0.00,VWS V13.01,2013-07-14 22:25:00,
2013-07-14 18:30:00,87.7,74.9,23.23,SSE,158,2.0,5.0,66,0.00,,,0.00,VWS V13.01,2013-07-14 22:30:00,
2013-07-14 18:35:00,87.7,74.5,23.23,SSE,158,2.0,4.0,65,0.00,,,0.00,VWS V13.01,2013-07-14 22:35:00,
2013-07-14 18:40:00,87.5,74.8,22.48,ESE,112,2.0,5.0,66,0.00,,,0.00,VWS V13.01,2013-07-14 22:40:00,
2013-07-14 18:45:00,87.4,74.7,22.48,ESE,112,2.0,5.0,66,0.00,,,0.00,VWS V13.01,2013-07-14 22:45:00,
2013-07-14 18:50:00,87.4,74.7,23.23,East,90,1.0,3.0,66,0.00,,,0.00,VWS V13.01,2013-07-14 22:50:00,
2013-07-14 18:55:00,87.4,74.7,23.23,ENE,68,1.0,4.0,66,0.00,,,0.00,VWS V13.01,2013-07-14 22:55:00,
2013-07-14 19:00:00,87.1,74.8,23.23,SE,135,2.0,6.0,67,0.00,,,0.00,VWS V13.01,2013-07-14 23:00:00,
2013-07-14 19:05:00,86.8,75.0,23.23,SE,135,2.0,4.0,68,0.00,,,0.00,VWS V13.01,2013-07-14 23:05:00,
2013-07-14 19:10:00,86.6,74.3,23.23,ESE,112,2.0,6.0,67,0.00,,,0.00,VWS V13.01,2013-07-14 23:10:00,
2013-07-14 19:15:00,86.2,74.0,23.23,ESE,112,2.0,6.0,67,0.00,,,0.00,VWS V13.01,2013-07-14 23:15:00,
2013-07-14 19:20:00,86.0,73.8,23.23,South,180,2.0,7.0,67,0.00,,,0.00,VWS V13.01,2013-07-14 23:20:00,
2013-07-14 19:25:00,85.8,73.6,23.23,SSE,158,1.0,4.0,67,0.00,,,0.00,VWS V13.01,2013-07-14 23:25:00,
2013-07-14 19:30:00,85.7,73.5,23.23,East,90,1.0,4.0,67,0.00,,,0.00,VWS V13.01,2013-07-14 23:30:00,
2013-07-14 19:35:00,85.4,73.6,23.23,East,90,1.0,3.0,68,0.00,,,0.00,VWS V13.01,2013-07-14 23:35:00,
2013-07-14 19:40:00,85.4,73.6,23.23,SE,135,1.0,4.0,68,0.00,,,0.00,VWS V13.01,2013-07-14 23:40:00,
2013-07-14 19:45:00,85.3,73.6,23.23,ESE,112,1.0,5.0,68,0.00,,,0.00,VWS V13.01,2013-07-14 23:45:00,
2013-07-14 19:50:00,85.1,73.8,23.23,ESE,112,1.0,4.0,69,0.00,,,0.00,VWS V13.01,2013-07-14 23:50:00,
2013-07-14 19:55:00,84.8,73.9,23.23,East,90,1.0,6.0,70,0.00,,,0.00,VWS V13.01,2013-07-14 23:55:00,
2013-07-14 20:00:00,84.7,74.3,23.23,South,180,1.0,5.0,71,0.00,,,0.00,VWS V13.01,2013-07-15 00:00:00,
2013-07-14 20:05:00,84.5,74.1,23.23,SSE,158,1.0,4.0,71,0.00,,,0.00,VWS V13.01,2013-07-15 00:05:00,
2013-07-14 20:10:00,84.3,73.5,23.23,SE,135,0.0,2.0,70,0.00,,,0.00,VWS V13.01,2013-07-15 00:10:00,
2013-07-14 20:15:00,84.1,73.3,23.23,ENE,68,1.0,4.0,70,0.00,,,0.00,VWS V13.01,2013-07-15 00:15:00,
2013-07-14 20:20:00,83.9,73.9,23.23,ENE,68,1.0,3.0,72,0.00,,,0.00,VWS V13.01,2013-07-15 00:20:00,
2013-07-14 20:25:00,83.7,73.7,23.23,SE,135,1.0,4.0,72,0.00,,,0.00,VWS V13.01,2013-07-15 00:25:00,
2013-07-14 20:30:00,83.5,73.5,23.23,ESE,112,0.0,3.0,72,0.00,,,0.00,VWS V13.01,2013-07-15 00:30:00,
2013-07-14 20:35:00,83.4,73.8,23.23,SE,135,1.0,3.0,73,0.00,,,0.00,VWS V13.01,2013-07-15 00:35:00,
2013-07-14 20:40:00,83.2,73.2,23.23,SE,135,0.0,3.0,72,0.00,,,0.00,VWS V13.01,2013-07-15 00:40:00,
2013-07-14 20:45:00,83.0,73.5,23.23,SE,135,1.0,3.0,73,0.00,,,0.00,VWS V13.01,2013-07-15 00:45:00,
2013-07-14 20:50:00,82.9,73.4,23.23,SSE,158,0.0,3.0,73,0.00,,,0.00,VWS V13.01,2013-07-15 00:50:00,
2013-07-14 20:55:00,82.7,73.2,23.23,SSE,158,1.0,4.0,73,0.00,,,0.00,VWS V13.01,2013-07-15 00:55:00,
2013-07-14 21:00:00,82.6,73.5,23.23,East,90,1.0,3.0,74,0.00,,,0.00,VWS V13.01,2013-07-15 01:00:00,
2013-07-14 21:05:00,82.3,72.8,23.23,East,90,0.0,2.0,73,0.00,,,0.00,VWS V13.01,2013-07-15 01:05:00,
2013-07-14 21:10:00,82.2,73.1,23.23,East,90,0.0,2.0,74,0.00,,,0.00,VWS V13.01,2013-07-15 01:10:00,
2013-07-14 21:15:00,82.1,73.4,23.23,East,90,0.0,2.0,75,0.00,,,0.00,VWS V13.01,2013-07-15 01:15:00,
2013-07-14 21:20:00,82.1,73.8,23.23,ESE,112,1.0,3.0,76,0.00,,,0.00,VWS V13.01,2013-07-15 01:20:00,
2013-07-14 21:25:00,82.0,73.7,23.23,ESE,112,0.0,2.0,76,0.00,,,0.00,VWS V13.01,2013-07-15 01:25:00,
2013-07-14 21:30:00,81.9,73.6,23.23,SE,135,1.0,3.0,76,0.00,,,0.00,VWS V13.01,2013-07-15 01:30:00,
2013-07-14 21:35:00,81.8,73.5,23.23,SE,135,0.0,1.0,76,0.00,,,0.00,VWS V13.01,2013-07-15 01:35:00,
2013-07-14 21:40:00,81.5,73.2,23.23,SE,135,0.0,1.0,76,0.00,,,0.00,VWS V13.01,2013-07-15 01:40:00,
2013-07-14 21:45:00,81.3,73.4,23.23,SE,135,0.0,1.0,77,0.00,,,0.00,VWS V13.01,2013-07-15 01:45:00,
2013-07-14 21:50:00,81.1,73.2,23.23,SE,135,0.0,1.0,77,0.00,,,0.00,VWS V13.01,2013-07-15 01:50:00,
2013-07-14 21:55:00,80.9,73.4,23.23,SE,135,0.0,1.0,78,0.00,,,0.00,VWS V13.01,2013-07-15 01:55:00,
2013-07-14 22:00:00,80.7,73.2,23.23,SE,135,0.0,1.0,78,0.00,,,0.00,VWS V13.01,2013-07-15 02:00:00,
2013-07-14 22:05:00,80.6,73.5,22.48,SE,135,0.0,1.0,79,0.00,,,0.00,VWS V13.01,2013-07-15 02:05:00,
2013-07-14 22:10:00,80.5,73.8,22.48,SE,135,0.0,0.0,80,0.00,,,0.00,VWS V13.01,2013-07-15 02:10:00,
2013-07-14 22:15:00,80.4,73.3,22.48,SE,135,0.0,1.0,79,0.00,,,0.00,VWS V13.01,2013-07-15 02:15:00,
2013-07-14 22:20:00,80.3,73.6,22.48,SE,135,0.0,1.0,80,0.00,,,0.00,VWS V13.01,2013-07-15 02:20:00,
2013-07-14 22:25:00,80.2,73.5,22.48,SE,135,0.0,1.0,80,0.00,,,0.00,VWS V13.01,2013-07-15 02:25:00,
2013-07-14 22:30:00,80.0,73.3,22.48,SE,135,0.0,1.0,80,0.00,,,0.00,VWS V13.01,2013-07-15 02:30:00,
2013-07-14 22:35:00,80.0,73.7,22.48,SE,135,0.0,1.0,81,0.00,,,0.00,VWS V13.01,2013-07-15 02:35:00,
2013-07-14 22:40:00,79.8,73.4,22.48,SE,135,0.0,0.0,81,0.00,,,0.00,VWS V13.01,2013-07-15 02:40:00,
2013-07-14 22:45:00,79.6,73.3,22.48,SE,135,0.0,1.0,81,0.00,,,0.00,VWS V13.01,2013-07-15 02:45:00,
2013-07-14 22:50:00,79.4,73.1,22.48,SE,135,0.0,1.0,81,0.00,,,0.00,VWS V13.01,2013-07-15 02:50:00,
2013-07-14 22:55:00,79.2,73.2,26.12,SE,135,0.0,1.0,82,0.00,,,0.00,VWS V13.01,2013-07-15 02:55:00,
2013-07-14 23:00:00,79.1,73.1,26.12,SE,135,0.0,1.0,82,0.00,,,0.00,VWS V13.01,2013-07-15 03:00:00,
2013-07-14 23:05:00,78.9,72.9,26.12,SE,135,0.0,1.0,82,0.00,,,0.00,VWS V13.01,2013-07-15 03:05:00,
2013-07-14 23:10:00,78.7,72.8,26.12,SE,135,0.0,1.0,82,0.00,,,0.00,VWS V13.01,2013-07-15 03:10:00,
2013-07-14 23:15:00,78.7,72.8,26.12,SE,135,0.0,1.0,82,0.00,,,0.00,VWS V13.01,2013-07-15 03:15:00,
2013-07-14 23:20:00,78.7,73.1,26.12,SE,135,0.0,1.0,83,0.00,,,0.00,VWS V13.01,2013-07-15 03:20:00,
2013-07-14 23:25:00,78.6,73.0,26.12,SE,135,0.0,1.0,83,0.00,,,0.00,VWS V13.01,2013-07-15 03:25:00,
2013-07-14 23:30:00,78.4,72.8,26.12,SE,135,0.0,1.0,83,0.00,,,0.00,VWS V13.01,2013-07-15 03:30:00,
2013-07-14 23:35:00,78.2,72.6,26.12,SE,135,0.0,1.0,83,0.00,,,0.00,VWS V13.01,2013-07-15 03:35:00,
2013-07-14 23:40:00,78.0,72.8,26.12,SE,135,0.0,1.0,84,0.00,,,0.00,VWS V13.01,2013-07-15 03:40:00,
2013-07-14 23:45:00,78.0,73.1,23.23,SE,135,0.0,0.0,85,0.00,,,0.00,VWS V13.01,2013-07-15 03:45:00,
2013-07-14 23:50:00,78.0,73.1,23.23,SE,135,0.0,1.0,85,0.00,,,0.00,VWS V13.01,2013-07-15 03:50:00,
2013-07-14 23:55:00,77.9,73.0,23.23,SE,135,0.0,1.0,85,0.00,,,0.00,VWS V13.01,2013-07-15 03:55:00,